Home   Weather   Belém   Past weeks
Flag for Brazil

Past Weather in Belém, Pará, Brazil — Yesterday and Last 2 Weeks

Now
79 °F

Scattered clouds.


Feels Like: 82 °F
Forecast: 87 / 74 °F
Wind: 8 mph from East

Location: Belem Aeroporto

Current Time: Oct 15, 2019 at 9:11:33 am

Latest Report: Oct 15, 2019 at 8:00 am


Visibility: N/A

Pressure: 29.89 "Hg

Humidity: 84%

Dew Point: 73 °F

Location of BelémLocation

Past Weather in Belém — Graph

°F

Belém Temperature Yesterday

Maximum temperature yesterday: 90 °F (at 2:00 pm)
Minimum temperature yesterday: 75 °F (at 2:00 am)
Average temperature yesterday: 80 °F

High & Low Weather Summary for the Past Weeks

 TemperatureHumidityPressure
High91 °F (Oct 10, 2:00 pm)94% (Oct 2, 1:00 am)29.98 "Hg (Oct 2, 1:00 am)
Low73 °F (Oct 3, 5:25 pm)52% (Oct 2, 2:00 pm)29.74 "Hg (Oct 1, 5:00 pm)
Average81 °F81%29.84 "Hg
* Reported Sep 30 8:00 am — Oct 15 8:00 am, Belém. Weather by CustomWeather, © 2019

Note: Actual official high and low records may vary slightly from our data, if they occured in-between our weather recording intervals... More about our weather records

Advertising

Belém Weather History for the Previous 24 Hours

Scroll right to see more
 ConditionsComfort  
Time TempWeatherWind HumidityBarometerVisibility
8:00 am
Tue, Oct 15
79 °FScattered clouds.8 mph84%29.89 "HgN/A
7:00 am77 °FPassing clouds.2 mph89%29.89 "HgN/A
6:00 am75 °FPassing clouds.3 mph94%29.86 "Hg6 mi
5:00 am75 °FClear.5 mph94%29.86 "Hg5 mi
4:00 am75 °FClear.5 mph94%29.86 "Hg5 mi
3:00 am77 °FClear.3 mph89%29.83 "Hg10 mi
2:00 am77 °FClear.7 mph89%29.86 "Hg6 mi
1:00 am77 °FClear.5 mph89%29.89 "Hg6 mi
12:00 am77 °FPassing clouds.5 mph89%29.89 "Hg6 mi
11:00 pm
Mon, Oct 14
79 °FPassing clouds.7 mph84%29.92 "HgN/A
10:00 pm79 °FPartly cloudy.8 mph84%29.89 "HgN/A
9:00 pm79 °FPassing clouds.8 mph84%29.86 "HgN/A
8:00 pm81 °FPartly cloudy.8 mph84%29.83 "HgN/A
7:00 pm79 °FPartly cloudy.2 mph89%29.80 "HgN/A
6:00 pm79 °FPassing clouds.5 mph89%29.80 "HgN/A
5:18 pm77 °FLight rain. Partly sunny.3 mph94%29.80 "HgN/A
5:00 pm82 °FThunderstorms. Broken clouds.16 mph79%29.80 "Hg1 mi
4:00 pm84 °FScattered clouds.6 mph79%29.80 "HgN/A
3:00 pm84 °FPartly sunny.10 mph79%29.80 "HgN/A
2:00 pm90 °FPartly sunny.9 mph59%29.80 "HgN/A
1:00 pm88 °FBroken clouds.9 mph62%29.83 "HgN/A
12:00 pm88 °FPartly sunny.9 mph62%29.86 "HgN/A
11:00 am86 °FPartly sunny.9 mph66%29.89 "HgN/A
10:00 am82 °FPartly sunny.10 mph79%29.89 "HgN/A
9:00 am82 °FScattered clouds.10 mph79%29.86 "HgN/A
Weather by CustomWeather, © 2019

See weather overview